FW4672 Weather Reports


Display with metric or nautical units.
time (UTC)temp
F
wind
direction
speed
MPH
gust
MPH
rain 1hr
in
rain 24hr
in
rain mn
in
humidity
%
barometer
mb
20260901003427 76 331 0.0 0.0 0.00 0.00 0.00 74 1031.2
20260901002525 76 328 0.0 0.0 0.00 0.00 0.00 75 1031.0
20260901001525 76 336 0.0 0.0 0.00 0.00 0.00 75 1031.2
20260831235526 77 337 0.0 0.0 0.00 0.00 0.00 75 1031.2
20260831234527 76 332 0.0 0.0 0.00 0.00 0.00 76 1031.3
20260831233526 76 331 0.0 0.0 0.00 0.00 0.00 77 1031.5
20260831232525 76 336 0.0 0.0 0.00 0.00 0.00 77 1031.3
20260831231624 76 324 0.0 0.0 0.00 0.00 0.00 76 1031.3
20260831230723 77 336 0.0 0.0 0.00 0.00 0.00 76 1031.4
20260831225726 77 329 0.0 0.0 0.00 0.00 0.00 76 1031.5
20260831224724 77 335 0.0 0.0 0.00 0.00 0.00 76 1031.5
20260831223823 77 335 0.0 0.0 0.00 0.00 0.00 76 1031.5
20260831222826 77 334 0.0 0.0 0.00 0.00 0.00 75 1031.8
20260831220824 77 334 0.0 0.0 0.00 0.00 0.00 75 1031.9
20260831215824 78 337 0.0 0.0 0.00 0.00 0.00 75 1032.0
20260831214825 78 329 0.0 0.0 0.00 0.00 0.00 74 1032.0
20260831213823 78 332 0.0 0.0 0.00 0.00 0.00 76 1031.8
20260831212824 78 335 0.0 0.0 0.00 0.00 0.00 75 1031.9
20260831211826 78 326 0.0 0.0 0.00 0.00 0.00 76 1032.0
20260831205924 78 336 0.0 0.0 0.00 0.00 0.00 76 1032.2
20260831204926 78 326 0.0 0.0 0.00 0.00 0.00 76 1032.3
20260831203924 78 334 0.0 0.0 0.00 0.00 0.00 77 1032.4
20260831202925 78 335 0.0 0.0 0.00 0.00 0.00 79 1032.4
20260831202023 78 337 0.0 0.0 0.00 0.00 0.00 79 1032.5
20260831201024 78 335 0.0 0.0 0.00 0.00 0.00 78 1032.5
20260831200024 78 328 0.0 0.0 0.00 0.00 0.00 79 1032.5
20260831195025 78 332 0.0 0.0 0.00 0.00 0.00 78 1032.3
20260831194026 79 336 0.0 0.0 0.00 0.00 0.00 76 1032.6
20260831193123 79 335 0.0 0.0 0.00 0.00 0.00 76 1032.5
20260831192126 79 337 0.0 0.0 0.00 0.00 0.00 76 1032.7
20260831191126 79 333 0.0 0.0 0.00 0.00 0.00 74 1032.8
20260831190123 78 311 0.0 0.0 0.00 0.00 0.00 76 1032.6
20260831185125 78 336 0.0 0.0 0.00 0.00 0.00 75 1032.8
20260831184126 77 335 0.0 0.0 0.00 0.00 0.00 75 1032.7
20260831182224 76 337 0.0 0.0 0.00 0.00 0.00 75 1032.7
20260831180225 75 317 0.0 0.0 0.00 0.00 0.00 76 1032.8
20260831174324 75 337 0.0 0.0 0.00 0.00 0.00 77 1032.5
20260831172426 74 225 0.0 0.0 0.00 0.00 0.00 78 1032.6
20260831171525 74 292 0.0 0.0 0.00 0.00 0.00 79 1032.4
20260831170623 74 335 0.0 0.0 0.00 0.00 0.00 79 1032.4
20260831165722 74 313 0.0 0.0 0.00 0.00 0.00 80 1032.5
20260831164723 73 332 0.0 0.0 0.00 0.00 0.00 80 1032.4
20260831162823 73 249 0.0 0.0 0.00 0.00 0.00 79 1032.4
20260831161825 73 335 0.0 0.0 0.00 0.00 0.00 80 1032.4
20260831160825 72 220 0.0 0.0 0.00 0.00 0.00 81 1032.4
20260831154923 72 181 0.0 0.0 0.00 0.00 0.00 81 1032.2
20260831153925 72 225 0.0 0.0 0.00 0.00 0.00 81 1032.3
20260831152924 72 337 0.0 0.0 0.00 0.00 0.00 81 1032.2
20260831151924 72 180 0.0 0.0 0.00 0.00 0.00 82 1032.1
20260831145925 71 330 0.0 0.0 0.00 0.00 0.00 85 1032.2
20260831145023 70 180 0.0 0.0 0.00 0.00 0.00 84 1031.9
20260831144024 70 180 0.0 0.0 0.00 0.00 0.00 85 1032.0
20260831143122 70 180 0.0 0.0 0.00 0.00 0.00 85 1032.0
20260831142125 69 180 0.0 0.0 0.00 0.00 0.00 85 1031.8
20260831141124 69 180 0.0 0.0 0.00 0.00 0.00 86 1031.7
20260831135124 69 180 0.0 0.0 0.00 0.00 0.00 86 1031.5
20260831134222 69 180 0.0 0.0 0.00 0.00 0.00 86 1031.2
20260831133225 69 180 0.0 0.0 0.00 0.00 0.00 85 1031.2
20260831132323 69 180 0.0 0.0 0.00 0.00 0.00 85 1031.1
20260831131324 69 180 0.0 0.0 0.00 0.00 0.00 85 1031.1
20260831130324 69 180 0.0 0.0 0.00 0.00 0.00 84 1031.0
20260831125325 70 180 0.0 0.0 0.00 0.00 0.00 84 1031.0
20260831123323 70 180 0.0 0.0 0.00 0.00 0.00 84 1031.0
20260831122324 70 180 0.0 0.0 0.00 0.00 0.00 85 1030.9
20260831121323 70 180 0.0 0.0 0.00 0.00 0.00 85 1030.9
20260831120324 70 180 0.0 0.0 0.00 0.00 0.00 85 1030.9
20260831114323 70 180 0.0 0.0 0.00 0.00 0.00 85 1030.9
20260831112325 70 180 0.0 0.0 0.00 0.00 0.00 85 1031.0
20260831111327 70 180 0.0 0.0 0.00 0.00 0.00 85 1031.0
20260831105324 70 180 0.0 0.0 0.00 0.00 0.00 86 1030.9
20260831103325 70 180 0.0 0.0 0.00 0.00 0.00 86 1031.1
20260831102422 70 180 0.0 0.0 0.00 0.00 0.00 86 1031.0
20260831101425 70 180 0.0 0.0 0.00 0.00 0.00 86 1031.0
20260831100523 70 180 0.0 0.0 0.00 0.00 0.00 87 1031.1
20260831095525 70 180 0.0 0.0 0.00 0.00 0.00 87 1031.0
20260831093625 70 180 0.0 0.0 0.00 0.00 0.00 88 1031.0
20260831092723 70 180 0.0 0.0 0.00 0.00 0.00 88 1031.1
20260831090823 70 180 0.0 0.0 0.00 0.00 0.00 89 1031.1
20260831085825 70 189 0.0 0.0 0.00 0.00 0.00 89 1031.0
20260831084922 70 180 0.0 0.0 0.00 0.00 0.00 88 1031.2
20260831082925 70 180 0.0 0.0 0.00 0.00 0.00 90 1031.0
20260831081926 70 180 0.0 0.0 0.00 0.00 0.00 90 1031.2
20260831081024 70 180 0.0 0.0 0.00 0.00 0.00 90 1031.2
20260831080124 70 180 0.0 0.0 0.00 0.00 0.00 91 1031.2
20260831074223 70 180 0.0 0.0 0.00 0.00 0.00 91 1031.3
20260831073226 70 180 0.0 0.0 0.00 0.00 0.00 90 1031.2
20260831072323 70 180 0.0 0.0 0.00 0.00 0.00 91 1031.2
20260831071325 70 180 0.0 0.0 0.00 0.00 0.00 90 1031.3
20260831070324 70 180 0.0 0.0 0.00 0.00 0.00 90 1031.2
20260831065331 70 337 0.0 0.0 0.00 0.00 0.00 90 1031.3
20260831064331 70 337 0.0 0.0 0.00 0.00 0.00 90 1031.2
20260831063330 70 180 0.0 0.0 0.00 0.00 0.00 91 1031.1
20260831062330 70 180 0.0 0.0 0.00 0.00 0.00 91 1031.1
20260831061330 70 180 0.0 0.0 0.00 0.00 0.00 90 1031.0
20260831060332 70 180 0.0 0.0 0.00 0.00 0.00 90 1030.9
20260831054432 70 337 0.0 0.0 0.00 0.00 0.00 89 1031.2
20260831053433 70 317 0.0 0.0 0.00 0.00 0.00 89 1031.0
20260831052429 70 337 0.0 0.0 0.00 0.00 0.00 89 1031.0
20260831051432 70 337 0.0 0.0 0.00 0.00 0.00 89 1031.0
20260831050430 70 337 0.0 0.0 0.00 0.00 0.00 88 1031.1
20260831045432 70 337 0.0 0.0 0.00 0.00 0.00 88 1031.0
20260831044531 71 337 0.0 0.0 0.00 0.00 0.00 88 1031.0
20260831043629 71 337 0.0 0.0 0.00 0.00 0.00 88 1030.8
20260831042632 71 337 0.0 0.0 0.00 0.00 0.00 87 1030.8
20260831041630 71 337 0.0 0.0 0.00 0.00 0.00 86 1030.7
20260831040631 71 321 0.0 0.0 0.00 0.00 0.00 85 1030.6
20260831035630 72 337 0.0 0.0 0.00 0.00 0.00 85 1030.6
20260831034632 72 337 0.0 0.0 0.00 0.00 0.00 86 1030.4
20260831033630 72 337 0.0 0.0 0.00 0.00 0.00 86 1030.4
20260831032632 72 337 0.0 0.0 0.00 0.00 0.00 85 1030.3
20260831030631 72 336 0.0 0.0 0.00 0.00 0.00 85 1030.0
20260831022632 73 337 0.0 0.0 0.00 0.00 0.00 83 1029.7
20260831021729 74 180 0.0 0.0 0.00 0.00 0.00 82 1029.6
20260831020730 74 268 0.0 0.0 0.00 0.00 0.00 81 1029.6
20260831015829 74 315 0.0 0.0 0.00 0.00 0.00 81 1029.5
20260831014832 74 337 0.0 0.0 0.00 0.00 0.00 81 1029.4
20260831013832 75 337 0.0 0.0 0.00 0.00 0.00 80 1029.3
20260831012930 76 323 0.0 0.0 0.00 0.00 0.00 79 1029.2
20260831010931 77 337 0.0 0.0 0.00 0.00 0.00 77 1029.4
20260831004930 78 334 0.0 0.0 0.00 0.00 0.00 76 1029.4
20260831003932 78 336 0.0 0.0 0.00 0.00 0.00 75 1029.4